Location: Santa Giusta
(39.8800°N, 8.6069°E)
Time: 16:20:06
(UTC+00:00)

Delta 2 Rocket - Pass Details

Date: 02 February 2023
Orbit: 409 x 752 km, 35.6° (Epoch: 01 April)

Event Time Altitude Azimuth Distance (km) Brightness Sun altitude
Rises 18:29:49 0° 256° (WSW) 2,324 8.1 -20.2°
Reaches altitude 10° 18:31:58 10° 248° (WSW) 1,464 6.6 -20.6°
Enters shadow 18:34:49 38° 190° (S) 640 3.7 -21.2°
